Location: Minneapolis
(45.0000°N, 93.0000°W)
Time: 15:43:30
(UTC-05:00)

ISS - Pass Details

Date: 13 March 2018
Orbit: 402 x 407 km, 51.6° (Epoch: 25 June)

Event Time Altitude Azimuth Distance (km) Brightness Sun altitude
Exits shadow 04:55:43 20° 35° (NE) 1,031 -1.2 -27.1°
Drops below altitude 10° 04:57:16 10° 58° (ENE) 1,479 0.0 -26.8°
Enters shadow 05:53:41 -69° 276° (W) 12,378 3.6 -17.4°
Maximum altitude 06:31:36 43° 21° (NNE) 590 -2.8 -10.8°
